FW8889 Weather Reports


time (UTC)temp
C
wind
direction
speed
KPH
gust
KPH
rain 1hr
cm
rain 24hr
cm
rain mn
cm
humidity
%
barometer
mb
20260504044559 2 0 0.0 0.0 0.00 0.00 0.00 75 1010.7
20260504043055 2 0 0.0 1.6 0.00 0.00 0.00 75 1010.7
20260504041556 2 0 0.0 1.6 0.00 0.00 0.00 75 1010.6
20260504034558 3 0 0.0 1.6 0.00 0.00 0.00 73 1010.4
20260504033124 3 0 0.0 1.6 0.00 0.00 0.00 73 1010.3
20260504031554 3 0 0.0 0.0 0.00 0.00 0.00 72 1010.3
20260504030051 3 0 0.0 3.2 0.00 0.00 0.00 71 1010.3
20260504024546 4 0 0.0 1.6 0.00 0.00 0.00 70 1010.3
20260504023059 4 0 0.0 0.0 0.00 0.00 0.00 68 1010.3
20260504021552 5 0 0.0 0.0 0.00 0.00 0.00 66 1010.3
20260504020057 5 0 0.0 0.0 0.00 0.00 0.00 63 1010.2
20260504014555 6 0 0.0 0.0 0.00 0.00 0.00 58 1010.1
20260504013058 6 0 0.0 0.0 0.00 0.00 0.00 57 1010.0
20260504011543 7 0 0.0 0.0 0.00 0.00 0.00 55 1009.9
20260504010059 7 0 0.0 0.0 0.00 0.00 0.00 53 1009.8
20260504004600 8 0 0.0 0.0 0.00 0.00 0.00 51 1009.6
20260504003048 8 0 0.0 0.0 0.00 0.00 0.00 50 1009.3
20260504001551 9 0 0.0 4.8 0.00 0.00 0.00 47 1009.1
20260504000050 9 63 0.0 6.4 0.00 0.00 0.00 46 1008.9
20260503234549 10 159 0.0 6.4 0.00 0.00 0.00 45 1008.8
20260503233050 10 221 1.6 16.1 0.00 0.00 0.00 43 1008.6
20260503231556 10 232 1.6 14.5 0.00 0.00 0.00 42 1008.3
20260503230057 10 345 0.0 9.7 0.00 0.00 0.00 43 1008.2
20260503224552 11 168 3.2 16.1 0.00 0.00 0.00 40 1007.9
20260503223058 11 320 3.2 12.9 0.00 0.00 0.00 41 1007.6
20260503221553 11 11 1.6 14.5 0.00 0.00 0.00 42 1007.7
20260503220052 11 21 4.8 14.5 0.00 0.00 0.00 42 1007.4
20260503214551 11 334 3.2 14.5 0.00 0.00 0.00 40 1007.2
20260503213100 11 273 3.2 22.5 0.00 0.00 0.00 39 1007.0
20260503211548 11 297 1.6 14.5 0.00 0.00 0.00 40 1006.8
20260503210058 11 311 6.4 19.3 0.00 0.00 0.00 41 1006.7
20260503204553 11 234 3.2 20.9 0.00 0.00 0.00 41 1006.6
20260503203058 11 277 3.2 16.1 0.00 0.00 0.00 41 1006.2
20260503201546 11 104 1.6 14.5 0.00 0.00 0.00 46 1006.2
20260503200056 12 301 4.8 16.1 0.00 0.00 0.00 44 1006.0
20260503194549 12 340 1.6 12.9 0.00 0.00 0.00 46 1006.2
20260503193054 12 317 3.2 14.5 0.00 0.00 0.00 44 1006.3
20260503191635 12 321 1.6 11.3 0.00 0.00 0.00 44 1006.3
20260503190049 12 205 3.2 16.1 0.00 0.00 0.00 48 1006.6
20260503184558 11 223 3.2 19.3 0.00 0.00 0.00 47 1006.5
20260503183100 10 215 3.2 17.7 0.00 0.00 0.00 49 1006.7
20260503181551 10 306 3.2 24.1 0.00 0.00 0.00 51 1006.7
20260503180046 10 360 4.8 16.1 0.00 0.00 0.00 53 1006.5
20260503174548 10 310 1.6 11.3 0.00 0.00 0.00 57 1006.6
20260503173112 10 321 1.6 9.7 0.00 0.00 0.00 58 1006.4
20260503171550 10 0 0.0 14.5 0.00 0.00 0.00 63 1006.5
20260503120106 6 0 1.6 4.8 0.00 0.10 0.00 85 1007.5
20260503081549 6 0 0.0 1.6 0.00 0.15 0.00 86 1008.7
20260503071548 6 0 0.0 6.4 0.00 0.15 0.00 86 1009.0